Location: Bern�tre
(50.1974°N, 2.0915°E)
Time: 05:10:37
(UTC+00:00)

SJ-6B - Pass Details

Date: 18 September 2020
Orbit: 511 x 580 km, 97.6° (Epoch: 29 October)

Event Time Altitude Azimuth Distance (km) Brightness Sun altitude
Exits shadow 19:22:14 15° 155° (SSE) 1,452 4.6 -14.0°
Maximum altitude 19:25:15 69° 74° (ENE) 554 2.6 -14.5°
Drops below altitude 10° 19:29:01 10° 351° (N) 1,758 5.8 -15.1°
Sets 19:31:09 0° 349° (N) 2,658 6.8 -15.4°
